Retour au catalogue

FENGYUN 1C DEB

LostPO
NORAD 38518·DEBRIS·🇨🇳 China

Lancé May 10, 1999 depuis Taiyuan Satellite Launch Center

Loading…

Prochains Passages (prochaines 24 heures)

TLE

PériméSource: Space-Track

Époque: Sep 13, 2022, 22:03 UTC

1 38518U 99025ETD 22256.91921616  .00004380  00000-0  13155-2 0  9994
2 38518  99.2078 291.8337 0030128  56.2889 304.1164 14.42982615662349

Suivez FENGYUN 1C DEB en temps réel avec AllMySat

Download on the App Store